Torna al catalogo

DELTA 1 DEB

LostPO
NORAD 42658·DEBRIS·🇺🇸 United States

Lanciato Jun 12, 1975 da Vandenberg Space Force Base

Loading…

Prossimi Passaggi (prossime 24 ore)

TLE

ObsoletoSource: Space-Track

Epoca: Feb 13, 2019, 16:09 UTC

1 42658U 75052MT  19044.67300950  .00000404  00000-0  17579-2 0  9991
2 42658  99.7969 209.3313 0432984 303.0360  52.9828 12.60810900678824

Traccia DELTA 1 DEB in tempo reale con AllMySat

Download on the App Store